Location: Montr�al
(45.5000°N, 73.5830°W)
Time: 05:45:47
(UTC-04:00)

Cosmos 1151 Rocket - Visible Passes

Search period start: 26 April 2015 00:00
Search period end: 06 May 2015 00:00
Orbit: 593 x 618 km, 82.5° (Epoch: 25 April)

Date Brightness Start Highest point End Pass type
(mag) Time Alt. Az. Time Alt. Az. Time Alt. Az.
26 Apr 4.6 03:57:29 10° N 04:01:28 35° ENE 04:05:29 10° SE visible
27 Apr 3.6 04:10:21 10° N 04:14:38 58° ENE 04:18:56 10° SSE visible
28 Apr 6.2 02:48:40 10° NE 02:49:24 10° ENE 02:50:23 10° ENE visible
28 Apr 3.0 04:23:23 10° N 04:27:44 84° W 04:32:06 10° S visible
29 Apr 5.8 03:00:04 10° NNE 03:02:49 17° ENE 03:05:42 10° ESE visible
29 Apr 3.2 04:36:35 10° NNW 04:40:47 50° W 04:44:59 10° SSW visible
30 Apr 5.1 03:12:30 10° NNE 03:16:08 26° ENE 03:19:49 10° SE visible
30 Apr 3.9 04:49:56 10° NNW 04:53:46 30° W 04:57:33 10° SSW visible
01 May 4.2 03:25:15 10° N 03:29:22 41° ENE 03:33:31 10° SSE visible
01 May 4.5 05:03:34 10° NW 05:06:42 19° W 05:09:44 10° SW visible
02 May 3.3 03:38:10 10° N 03:42:31 68° E 03:46:32 12° SSE visible
03 May 5.9 02:15:40 10° NE 02:17:22 12° ENE 02:19:15 10° E visible
03 May 2.9 03:51:14 10° NNW 03:55:35 72° W 03:58:53 17° S visible
04 May 5.5 02:27:39 10° NNE 02:30:44 19° ENE 02:33:56 10° ESE visible
04 May 3.4 04:04:27 10° NNW 04:08:36 43° W 04:11:20 19° SSW visible
05 May 4.8 02:40:11 10° NNE 02:44:01 30° ENE 02:47:00 15° SE visible
05 May 4.1 04:17:52 10° NNW 04:21:34 26° W 04:23:50 17° SW visible
